Location: *
(49.8044°N, 4.0558°E)
Time: 18:03:12
(UTC+00:00)

Cosmos 1743 Rocket - Pass Details

Date: 09 April 2020
Orbit: 604 x 633 km, 82.6° (Epoch: 28 May)

Event Time Altitude Azimuth Distance (km) Brightness Sun altitude
Rises 21:27:55 0° 354° (N) 2,941 7.9 -24.9°
Reaches altitude 10° 21:30:15 10° 1° (N) 2,029 6.8 -25.2°
Enters shadow 21:33:44 40° 43° (NE) 945 4.5 -25.5°
